Time,TemperatureF,DewpointF,PressureIn,WindDirection,WindDirectionDegrees,WindSpeedMPH,WindSpeedGustMPH,Humidity,HourlyPrecipIn,Conditions,Clouds,dailyrainin,SoftwareType,DateUTC
2013-11-10 00:01:00,33.4,26.6,30.11,ESE,113,0.0,2.0,76,0.00,,,0.00,WUHU216HW,2013-11-10 05:01:00,
2013-11-10 00:02:00,33.4,26.6,30.11,ESE,113,0.0,2.0,76,0.00,,,0.00,WUHU216HW,2013-11-10 05:02:00,
2013-11-10 00:04:00,33.4,26.9,30.11,SSE,158,0.0,0.0,77,0.00,,,0.00,WUHU216HW,2013-11-10 05:04:00,
2013-11-10 00:09:00,33.4,26.9,30.11,SE,135,0.0,0.0,77,0.00,,,0.00,WUHU216HW,2013-11-10 05:09:00,
2013-11-10 00:14:00,33.4,27.2,30.11,SE,135,0.0,0.0,78,0.00,,,0.00,WUHU216HW,2013-11-10 05:14:00,
2013-11-10 00:19:00,33.2,27.0,30.10,SSE,158,0.0,0.0,78,0.00,,,0.00,WUHU216HW,2013-11-10 05:19:00,
2013-11-10 00:24:00,33.4,27.2,30.09,ESE,113,0.0,0.0,78,0.00,,,0.00,WUHU216HW,2013-11-10 05:24:00,
2013-11-10 00:29:00,33.2,27.4,30.09,ESE,113,0.0,0.0,79,0.00,,,0.00,WUHU216HW,2013-11-10 05:29:00,
2013-11-10 00:34:00,33.2,27.4,30.09,SSE,158,0.0,0.0,79,0.00,,,0.00,WUHU216HW,2013-11-10 05:34:00,
2013-11-10 00:39:00,33.2,27.4,30.08,SE,135,0.0,0.0,79,0.00,,,0.00,WUHU216HW,2013-11-10 05:39:00,
2013-11-10 00:44:00,33.2,27.4,30.08,SSE,158,0.0,0.0,79,0.00,,,0.00,WUHU216HW,2013-11-10 05:44:00,
2013-11-10 00:50:00,33.2,27.4,30.08,SE,135,0.0,0.0,79,0.00,,,0.00,WUHU216HW,2013-11-10 05:50:00,
2013-11-10 00:55:00,33.4,27.5,30.08,SE,135,0.0,0.0,79,0.00,,,0.00,WUHU216HW,2013-11-10 05:55:00,
2013-11-10 01:00:00,33.4,27.5,30.07,SSW,203,0.0,0.0,79,0.00,,,0.00,WUHU216HW,2013-11-10 06:00:00,
2013-11-10 01:05:00,33.4,27.5,30.07,South,180,0.0,0.0,79,0.00,,,0.00,WUHU216HW,2013-11-10 06:05:00,
2013-11-10 01:10:00,33.4,27.5,30.07,SE,135,0.0,0.0,79,0.00,,,0.00,WUHU216HW,2013-11-10 06:10:00,
2013-11-10 01:15:00,33.4,27.8,30.06,ESE,113,0.0,0.0,80,0.00,,,0.00,WUHU216HW,2013-11-10 06:15:00,
2013-11-10 01:20:00,33.2,27.7,30.06,SSE,158,0.0,0.0,80,0.00,,,0.00,WUHU216HW,2013-11-10 06:20:00,
2013-11-10 01:25:00,33.2,27.7,30.06,SSE,158,0.0,0.0,80,0.00,,,0.00,WUHU216HW,2013-11-10 06:25:00,
2013-11-10 01:30:00,33.2,27.7,30.06,SW,225,0.0,0.0,80,0.00,,,0.00,WUHU216HW,2013-11-10 06:30:00,
2013-11-10 01:35:00,33.0,27.5,30.06,SW,225,0.0,0.0,80,0.00,,,0.00,WUHU216HW,2013-11-10 06:35:00,
2013-11-10 01:41:00,33.2,27.7,30.05,SW,225,0.0,0.0,80,0.00,,,0.00,WUHU216HW,2013-11-10 06:41:00,
2013-11-10 01:46:00,33.2,27.7,30.05,SW,225,0.0,0.0,80,0.00,,,0.00,WUHU216HW,2013-11-10 06:46:00,
2013-11-10 01:51:00,33.2,28.0,30.04,SW,225,0.0,0.0,81,0.00,,,0.00,WUHU216HW,2013-11-10 06:51:00,
2013-11-10 01:56:00,33.2,28.0,30.04,SW,225,0.0,0.0,81,0.00,,,0.00,WUHU216HW,2013-11-10 06:56:00,
2013-11-10 02:01:00,33.2,28.0,30.04,SW,225,0.0,0.0,81,0.00,,,0.00,WUHU216HW,2013-11-10 07:01:00,
2013-11-10 02:06:00,33.2,28.0,30.04,SW,225,0.0,0.0,81,0.00,,,0.00,WUHU216HW,2013-11-10 07:06:00,
2013-11-10 02:11:00,33.4,28.1,30.04,SW,225,0.0,0.0,81,0.00,,,0.00,WUHU216HW,2013-11-10 07:11:00,
2013-11-10 02:16:00,33.4,28.0,30.03,SW,225,0.0,0.0,81,0.00,,,0.00,WUHU216HW,2013-11-10 07:16:00,
2013-11-10 02:21:00,33.2,28.1,30.03,SW,225,0.0,0.0,81,0.00,,,0.00,WUHU216HW,2013-11-10 07:21:00,
2013-11-10 02:26:00,33.2,28.0,30.03,SW,225,0.0,0.0,81,0.00,,,0.00,WUHU216HW,2013-11-10 07:26:00,
2013-11-10 02:31:00,33.2,28.0,30.02,SW,225,0.0,0.0,81,0.00,,,0.00,WUHU216HW,2013-11-10 07:31:00,
2013-11-10 02:36:00,33.2,28.0,30.02,SW,225,0.0,0.0,81,0.00,,,0.00,WUHU216HW,2013-11-10 07:36:00,
2013-11-10 02:42:00,33.2,28.0,30.02,SSW,203,4.0,4.0,81,0.00,,,0.00,WUHU216HW,2013-11-10 07:42:00,
2013-11-10 02:47:00,33.2,28.0,30.02,ESE,113,0.0,4.0,81,0.00,,,0.00,WUHU216HW,2013-11-10 07:47:00,
2013-11-10 02:52:00,33.4,28.1,30.02,ESE,113,0.0,0.0,81,0.00,,,0.00,WUHU216HW,2013-11-10 07:52:00,
2013-11-10 02:57:00,33.4,28.1,30.02,East,90,0.0,0.0,81,0.00,,,0.00,WUHU216HW,2013-11-10 07:57:00,
2013-11-10 03:02:00,33.4,28.1,30.02,ESE,113,0.0,0.0,81,0.00,,,0.00,WUHU216HW,2013-11-10 08:02:00,
2013-11-10 03:07:00,33.4,28.1,30.02,SE,135,0.0,0.0,81,0.00,,,0.00,WUHU216HW,2013-11-10 08:07:00,
2013-11-10 03:12:00,33.2,28.0,30.02,SE,135,0.0,0.0,81,0.00,,,0.00,WUHU216HW,2013-11-10 08:12:00,
2013-11-10 03:17:00,33.2,28.3,30.01,SE,135,0.0,0.0,82,0.00,,,0.00,WUHU216HW,2013-11-10 08:17:00,
2013-11-10 03:22:00,33.2,28.3,30.01,SE,135,0.0,0.0,82,0.00,,,0.00,WUHU216HW,2013-11-10 08:22:00,
2013-11-10 03:27:00,33.2,28.3,30.01,SSE,158,0.0,0.0,82,0.00,,,0.00,WUHU216HW,2013-11-10 08:27:00,
2013-11-10 03:32:00,33.2,28.3,30.00,SSE,158,0.0,0.0,82,0.00,,,0.00,WUHU216HW,2013-11-10 08:32:00,
2013-11-10 03:38:00,33.2,28.3,30.00,SE,135,0.0,0.0,82,0.00,,,0.00,WUHU216HW,2013-11-10 08:38:00,
2013-11-10 03:43:00,33.2,28.3,30.00,ESE,113,0.0,0.0,82,0.00,,,0.00,WUHU216HW,2013-11-10 08:43:00,
2013-11-10 03:48:00,33.4,28.4,30.01,SSW,203,0.0,0.0,82,0.00,,,0.00,WUHU216HW,2013-11-10 08:48:00,
2013-11-10 03:53:00,33.2,28.3,30.00,SSW,203,0.0,2.0,82,0.00,,,0.00,WUHU216HW,2013-11-10 08:53:00,
2013-11-10 03:58:00,33.2,28.3,30.00,South,180,0.0,2.0,82,0.00,,,0.00,WUHU216HW,2013-11-10 08:58:00,
2013-11-10 04:03:00,33.2,28.3,30.00,ESE,113,0.0,0.0,82,0.00,,,0.00,WUHU216HW,2013-11-10 09:03:00,
2013-11-10 04:08:00,33.2,28.3,30.00,East,90,0.0,0.0,82,0.00,,,0.00,WUHU216HW,2013-11-10 09:08:00,
2013-11-10 04:13:00,33.2,28.3,30.00,SE,135,0.0,1.0,82,0.00,,,0.00,WUHU216HW,2013-11-10 09:13:00,
2013-11-10 04:18:00,33.2,28.3,29.99,ESE,113,0.0,2.0,82,0.00,,,0.00,WUHU216HW,2013-11-10 09:18:00,
2013-11-10 04:23:00,33.2,28.3,29.99,ESE,113,0.0,2.0,82,0.00,,,0.00,WUHU216HW,2013-11-10 09:23:00,
2013-11-10 04:29:00,33.2,28.3,29.99,ESE,113,0.0,0.0,82,0.00,,,0.00,WUHU216HW,2013-11-10 09:29:00,
2013-11-10 04:34:00,33.0,28.1,29.99,SSE,158,0.0,0.0,82,0.00,,,0.00,WUHU216HW,2013-11-10 09:34:00,
2013-11-10 04:39:00,33.2,28.5,29.99,ESE,113,0.0,0.0,83,0.00,,,0.00,WUHU216HW,2013-11-10 09:39:00,
2013-11-10 04:44:00,33.2,28.5,29.98,West,270,0.0,0.0,83,0.00,,,0.00,WUHU216HW,2013-11-10 09:44:00,
2013-11-10 04:49:00,33.0,28.5,29.98,WSW,248,0.0,0.0,83,0.00,,,0.00,WUHU216HW,2013-11-10 09:49:00,
2013-11-10 04:54:00,33.2,28.4,29.98,SSE,158,0.0,0.0,83,0.00,,,0.00,WUHU216HW,2013-11-10 09:54:00,
2013-11-10 04:59:00,33.0,28.4,29.98,SSE,158,0.0,0.0,83,0.00,,,0.00,WUHU216HW,2013-11-10 09:59:00,
2013-11-10 05:04:00,33.0,28.4,29.98,SSE,158,0.0,0.0,83,0.00,,,0.00,WUHU216HW,2013-11-10 10:04:00,
2013-11-10 05:09:00,32.9,28.2,29.98,SSE,158,0.0,0.0,83,0.00,,,0.00,WUHU216HW,2013-11-10 10:09:00,
2013-11-10 05:14:00,32.7,28.1,29.97,SSE,158,0.0,0.0,83,0.00,,,0.00,WUHU216HW,2013-11-10 10:14:00,
2013-11-10 05:19:00,32.7,28.1,29.97,SSE,158,0.0,0.0,83,0.00,,,0.00,WUHU216HW,2013-11-10 10:19:00,
2013-11-10 05:25:00,32.5,27.9,29.97,SSE,158,0.0,0.0,83,0.00,,,0.00,WUHU216HW,2013-11-10 10:25:00,
2013-11-10 05:30:00,32.3,27.7,29.97,SSE,158,0.0,0.0,83,0.00,,,0.00,WUHU216HW,2013-11-10 10:30:00,
2013-11-10 05:35:00,32.3,27.7,29.97,SSE,158,0.0,0.0,83,0.00,,,0.00,WUHU216HW,2013-11-10 10:35:00,
2013-11-10 05:38:00,32.1,27.6,29.97,SSE,158,0.0,0.0,83,0.00,,,0.00,WUHU216HW,2013-11-10 10:38:00,
2013-11-10 05:43:00,32.1,27.6,29.97,SSE,158,0.0,0.0,83,0.00,,,0.00,WUHU216HW,2013-11-10 10:43:00,
2013-11-10 05:48:00,32.1,27.6,29.96,SSE,158,0.0,0.0,83,0.00,,,0.00,WUHU216HW,2013-11-10 10:48:00,
2013-11-10 05:53:00,31.8,27.2,29.96,SSE,158,0.0,0.0,83,0.00,,,0.00,WUHU216HW,2013-11-10 10:53:00,
2013-11-10 05:58:00,31.8,27.2,29.96,SSE,158,0.0,0.0,83,0.00,,,0.00,WUHU216HW,2013-11-10 10:58:00,
2013-11-10 06:03:00,31.6,27.1,29.96,SSE,158,0.0,0.0,83,0.00,,,0.00,WUHU216HW,2013-11-10 11:03:00,
2013-11-10 06:08:00,31.4,26.9,29.96,SSE,158,0.0,0.0,83,0.00,,,0.00,WUHU216HW,2013-11-10 11:08:00,
2013-11-10 06:13:00,31.2,26.7,29.96,SSE,158,0.0,0.0,83,0.00,,,0.00,WUHU216HW,2013-11-10 11:13:00,
2013-11-10 06:18:00,31.2,26.5,29.96,SSE,158,0.0,0.0,83,0.00,,,0.00,WUHU216HW,2013-11-10 11:18:00,
2013-11-10 06:24:00,30.9,26.3,29.96,SSE,158,0.0,0.0,83,0.00,,,0.00,WUHU216HW,2013-11-10 11:24:00,
2013-11-10 06:29:00,30.9,26.3,29.95,SSE,158,0.0,0.0,83,0.00,,,0.00,WUHU216HW,2013-11-10 11:29:00,
2013-11-10 06:34:00,30.7,26.2,29.95,SSE,158,0.0,0.0,83,0.00,,,0.00,WUHU216HW,2013-11-10 11:34:00,
2013-11-10 06:39:00,30.7,26.2,29.95,SSE,158,0.0,0.0,83,0.00,,,0.00,WUHU216HW,2013-11-10 11:39:00,
2013-11-10 06:44:00,30.7,26.2,29.95,SSE,158,0.0,0.0,83,0.00,,,0.00,WUHU216HW,2013-11-10 11:44:00,
2013-11-10 06:49:00,30.5,26.0,29.96,SSE,158,0.0,0.0,83,0.00,,,0.00,WUHU216HW,2013-11-10 11:49:00,
2013-11-10 06:54:00,30.3,25.8,29.96,SSE,158,0.0,0.0,83,0.00,,,0.00,WUHU216HW,2013-11-10 11:54:00,
2013-11-10 06:59:00,30.3,25.8,29.96,SSE,158,0.0,0.0,83,0.00,,,0.00,WUHU216HW,2013-11-10 11:59:00,
2013-11-10 07:04:00,30.3,25.8,29.95,SSE,158,0.0,0.0,83,0.00,,,0.00,WUHU216HW,2013-11-10 12:04:00,
2013-11-10 07:09:00,30.2,25.6,29.95,SSE,158,0.0,0.0,83,0.00,,,0.00,WUHU216HW,2013-11-10 12:09:00,
2013-11-10 07:15:00,30.2,25.6,29.96,SSE,158,0.0,0.0,83,0.00,,,0.00,WUHU216HW,2013-11-10 12:15:00,
2013-11-10 07:20:00,30.3,25.8,29.96,SSE,158,0.0,0.0,83,0.00,,,0.00,WUHU216HW,2013-11-10 12:20:00,
2013-11-10 07:25:00,30.5,26.0,29.96,SSE,158,0.0,0.0,83,0.00,,,0.00,WUHU216HW,2013-11-10 12:25:00,
2013-11-10 07:30:00,30.7,26.2,29.97,SSE,158,0.0,0.0,83,0.00,,,0.00,WUHU216HW,2013-11-10 12:30:00,
2013-11-10 07:35:00,30.9,26.6,29.97,SSE,158,0.0,0.0,84,0.00,,,0.00,WUHU216HW,2013-11-10 12:35:00,
2013-11-10 07:40:00,31.2,27.0,29.97,SSE,158,0.0,0.0,84,0.00,,,0.00,WUHU216HW,2013-11-10 12:40:00,
2013-11-10 07:45:00,31.8,27.5,29.97,SSE,158,0.0,0.0,84,0.00,,,0.00,WUHU216HW,2013-11-10 12:45:00,
2013-11-10 07:50:00,32.3,28.0,29.97,SSE,158,0.0,0.0,84,0.00,,,0.00,WUHU216HW,2013-11-10 12:50:00,
2013-11-10 07:55:00,32.9,28.5,29.97,SSE,158,0.0,0.0,84,0.00,,,0.00,WUHU216HW,2013-11-10 12:55:00,
2013-11-10 08:00:00,33.6,29.3,29.97,SSE,158,0.0,0.0,85,0.00,,,0.00,WUHU216HW,2013-11-10 13:00:00,
2013-11-10 08:05:00,33.8,29.6,29.96,SSE,158,0.0,0.0,85,0.00,,,0.00,WUHU216HW,2013-11-10 13:05:00,
2013-11-10 08:10:00,33.9,29.5,29.96,SSE,158,0.0,0.0,84,0.00,,,0.00,WUHU216HW,2013-11-10 13:10:00,
2013-11-10 08:16:00,33.8,29.3,29.96,SSE,158,0.0,0.0,84,0.00,,,0.00,WUHU216HW,2013-11-10 13:16:00,
2013-11-10 08:21:00,33.8,29.3,29.96,SE,135,0.0,0.0,84,0.00,,,0.00,WUHU216HW,2013-11-10 13:21:00,
2013-11-10 08:26:00,33.8,29.3,29.96,ESE,113,0.0,0.0,84,0.00,,,0.00,WUHU216HW,2013-11-10 13:26:00,
2013-11-10 08:31:00,34.1,29.7,29.96,ESE,113,0.0,0.0,84,0.00,,,0.00,WUHU216HW,2013-11-10 13:31:00,
2013-11-10 08:36:00,34.3,29.9,29.96,SSE,158,0.0,0.0,84,0.00,,,0.00,WUHU216HW,2013-11-10 13:36:00,
2013-11-10 08:41:00,34.5,30.3,29.96,SE,135,0.0,0.0,85,0.00,,,0.00,WUHU216HW,2013-11-10 13:41:00,
2013-11-10 08:46:00,34.7,30.5,29.96,SE,135,0.0,0.0,85,0.00,,,0.00,WUHU216HW,2013-11-10 13:46:00,
2013-11-10 08:51:00,35.2,31.1,29.96,SE,135,0.0,0.0,85,0.00,,,0.00,WUHU216HW,2013-11-10 13:51:00,
2013-11-10 08:56:00,35.2,31.1,29.96,North,0,0.0,0.0,85,0.00,,,0.00,WUHU216HW,2013-11-10 13:56:00,
2013-11-10 09:01:00,35.4,30.9,29.95,SE,135,0.0,0.0,84,0.00,,,0.00,WUHU216HW,2013-11-10 14:01:00,
2013-11-10 09:07:00,35.4,30.9,29.95,NE,45,0.0,0.0,84,0.00,,,0.00,WUHU216HW,2013-11-10 14:07:00,
2013-11-10 09:12:00,35.6,31.4,29.95,South,180,0.0,0.0,85,0.00,,,0.00,WUHU216HW,2013-11-10 14:12:00,
2013-11-10 09:17:00,35.7,31.6,29.95,SSE,158,0.0,0.0,85,0.00,,,0.00,WUHU216HW,2013-11-10 14:17:00,
2013-11-10 09:22:00,35.7,31.6,29.94,ESE,113,0.0,0.0,85,0.00,,,0.00,WUHU216HW,2013-11-10 14:22:00,
2013-11-10 09:27:00,35.9,31.6,29.94,NE,45,0.0,0.0,85,0.00,,,0.00,WUHU216HW,2013-11-10 14:27:00,
2013-11-10 09:32:00,35.9,31.8,29.94,NE,45,0.0,0.0,85,0.00,,,0.00,WUHU216HW,2013-11-10 14:32:00,
2013-11-10 09:37:00,36.1,32.0,29.94,SSE,158,0.0,0.0,85,0.00,,,0.00,WUHU216HW,2013-11-10 14:37:00,
2013-11-10 09:42:00,36.3,32.1,29.94,SSE,158,0.0,0.0,85,0.00,,,0.00,WUHU216HW,2013-11-10 14:42:00,
2013-11-10 09:47:00,36.3,32.1,29.93,SSE,158,0.0,0.0,85,0.00,,,0.00,WUHU216HW,2013-11-10 14:47:00,
2013-11-10 09:52:00,36.5,32.3,29.93,SSE,158,0.0,0.0,85,0.00,,,0.00,WUHU216HW,2013-11-10 14:52:00,
2013-11-10 09:58:00,36.6,32.5,29.93,SSE,158,0.0,0.0,85,0.00,,,0.00,WUHU216HW,2013-11-10 14:58:00,
2013-11-10 10:03:00,37.0,32.9,29.93,SSE,158,0.0,0.0,85,0.00,,,0.00,WUHU216HW,2013-11-10 15:03:00,
2013-11-10 10:08:00,37.2,33.3,29.93,SSE,158,0.0,0.0,86,0.00,,,0.00,WUHU216HW,2013-11-10 15:08:00,
2013-11-10 10:13:00,37.7,33.9,29.93,SSE,158,0.0,0.0,86,0.00,,,0.00,WUHU216HW,2013-11-10 15:13:00,
2013-11-10 10:18:00,38.3,34.4,29.92,SSE,158,0.0,0.0,86,0.00,,,0.00,WUHU216HW,2013-11-10 15:18:00,
2013-11-10 10:23:00,39.3,35.1,29.92,ESE,113,0.0,0.0,86,0.00,,,0.00,WUHU216HW,2013-11-10 15:23:00,
2013-11-10 10:28:00,39.9,36.0,29.92,SE,135,0.0,0.0,86,0.00,,,0.00,WUHU216HW,2013-11-10 15:28:00,
2013-11-10 10:33:00,40.2,36.3,29.91,SE,135,0.0,0.0,86,0.00,,,0.00,WUHU216HW,2013-11-10 15:33:00,
2013-11-10 10:38:00,40.6,36.7,29.91,SSE,158,0.0,0.0,86,0.00,,,0.00,WUHU216HW,2013-11-10 15:38:00,
2013-11-10 10:43:00,40.8,36.8,29.91,SSE,158,0.0,0.0,86,0.00,,,0.00,WUHU216HW,2013-11-10 15:43:00,
2013-11-10 10:48:00,41.1,36.9,29.91,SSE,158,0.0,0.0,85,0.00,,,0.00,WUHU216HW,2013-11-10 15:48:00,
2013-11-10 10:54:00,41.3,37.1,29.91,SE,135,0.0,0.0,85,0.00,,,0.00,WUHU216HW,2013-11-10 15:54:00,
2013-11-10 10:59:00,41.3,36.8,29.91,ESE,113,0.0,0.0,84,0.00,,,0.00,WUHU216HW,2013-11-10 15:59:00,
2013-11-10 11:04:00,41.3,36.8,29.91,ESE,113,0.0,0.0,84,0.00,,,0.00,WUHU216HW,2013-11-10 16:04:00,
2013-11-10 11:09:00,41.3,36.5,29.90,SE,135,0.0,0.0,83,0.00,,,0.00,WUHU216HW,2013-11-10 16:09:00,
2013-11-10 11:14:00,41.5,36.5,29.90,SSE,158,0.0,0.0,83,0.00,,,0.00,WUHU216HW,2013-11-10 16:14:00,
2013-11-10 11:19:00,41.5,36.6,29.90,SSE,158,0.0,1.0,83,0.00,,,0.00,WUHU216HW,2013-11-10 16:19:00,
2013-11-10 11:24:00,41.5,36.6,29.89,SSE,158,0.0,1.0,83,0.00,,,0.00,WUHU216HW,2013-11-10 16:24:00,
2013-11-10 11:29:00,41.7,36.8,29.89,SE,135,0.0,0.0,83,0.00,,,0.00,WUHU216HW,2013-11-10 16:29:00,
2013-11-10 11:34:00,41.7,36.8,29.89,NNW,338,0.0,0.0,83,0.00,,,0.00,WUHU216HW,2013-11-10 16:34:00,
2013-11-10 11:40:00,41.7,36.8,29.89,NNW,338,0.0,0.0,83,0.00,,,0.00,WUHU216HW,2013-11-10 16:40:00,
2013-11-10 11:45:00,41.9,36.7,29.89,ESE,113,0.0,0.0,82,0.00,,,0.00,WUHU216HW,2013-11-10 16:45:00,
2013-11-10 11:50:00,42.0,36.9,29.89,SSE,158,0.0,0.0,82,0.00,,,0.00,WUHU216HW,2013-11-10 16:50:00,
2013-11-10 11:55:00,42.0,36.9,29.89,SSW,203,0.0,0.0,82,0.00,,,0.00,WUHU216HW,2013-11-10 16:55:00,
2013-11-10 12:00:00,42.0,36.9,29.88,SE,135,0.0,0.0,82,0.00,,,0.00,WUHU216HW,2013-11-10 17:00:00,
2013-11-10 12:05:00,42.0,36.6,29.88,ESE,113,0.0,0.0,81,0.00,,,0.00,WUHU216HW,2013-11-10 17:05:00,
2013-11-10 12:10:00,42.0,36.6,29.89,SSE,158,0.0,0.0,81,0.00,,,0.00,WUHU216HW,2013-11-10 17:10:00,
2013-11-10 12:15:00,41.9,36.4,29.89,SSE,158,0.0,0.0,81,0.00,,,0.00,WUHU216HW,2013-11-10 17:15:00,
2013-11-10 12:20:00,42.0,36.4,29.89,ESE,113,0.0,0.0,81,0.00,,,0.00,WUHU216HW,2013-11-10 17:20:00,
2013-11-10 12:25:00,42.0,36.6,29.88,ESE,113,0.0,0.0,81,0.00,,,0.00,WUHU216HW,2013-11-10 17:25:00,
2013-11-10 12:31:00,42.0,36.6,29.88,ESE,113,0.0,0.0,81,0.00,,,0.00,WUHU216HW,2013-11-10 17:31:00,
2013-11-10 12:36:00,42.0,36.6,29.88,SSE,158,3.0,3.0,81,0.00,,,0.00,WUHU216HW,2013-11-10 17:36:00,
2013-11-10 12:41:00,42.0,36.8,29.88,SE,135,0.0,3.0,81,0.00,,,0.00,WUHU216HW,2013-11-10 17:41:00,
2013-11-10 12:46:00,42.4,36.6,29.88,SE,135,0.0,0.0,80,0.00,,,0.00,WUHU216HW,2013-11-10 17:46:00,
2013-11-10 12:51:00,42.4,36.6,29.88,WNW,293,0.0,0.0,80,0.00,,,0.00,WUHU216HW,2013-11-10 17:51:00,
2013-11-10 12:56:00,42.4,36.6,29.88,SW,225,0.0,0.0,80,0.00,,,0.00,WUHU216HW,2013-11-10 17:56:00,
2013-11-10 13:01:00,42.4,36.3,29.87,SW,225,0.0,0.0,79,0.00,,,0.00,WUHU216HW,2013-11-10 18:01:00,
2013-11-10 13:06:00,42.6,36.5,29.88,SW,225,0.0,0.0,79,0.00,,,0.00,WUHU216HW,2013-11-10 18:06:00,
2013-11-10 13:11:00,42.6,36.5,29.88,SW,225,0.0,0.0,79,0.00,,,0.00,WUHU216HW,2013-11-10 18:11:00,
2013-11-10 13:16:00,42.6,36.5,29.88,SW,225,0.0,0.0,79,0.00,,,0.00,WUHU216HW,2013-11-10 18:16:00,
2013-11-10 13:21:00,42.6,36.5,29.88,SW,225,0.0,0.0,79,0.00,,,0.00,WUHU216HW,2013-11-10 18:21:00,
2013-11-10 13:27:00,42.6,36.5,29.88,ESE,113,0.0,0.0,79,0.00,,,0.00,WUHU216HW,2013-11-10 18:27:00,
2013-11-10 13:32:00,42.6,36.5,29.87,ESE,113,0.0,0.0,79,0.00,,,0.00,WUHU216HW,2013-11-10 18:32:00,
2013-11-10 13:37:00,42.6,36.5,29.87,ESE,113,0.0,0.0,79,0.00,,,0.00,WUHU216HW,2013-11-10 18:37:00,
2013-11-10 13:42:00,42.9,36.8,29.87,ESE,113,0.0,0.0,79,0.00,,,0.00,WUHU216HW,2013-11-10 18:42:00,
2013-11-10 13:47:00,42.9,36.8,29.87,ESE,113,0.0,0.0,79,0.00,,,0.00,WUHU216HW,2013-11-10 18:47:00,
2013-11-10 13:52:00,42.9,36.5,29.87,West,270,0.0,0.0,78,0.00,,,0.00,WUHU216HW,2013-11-10 18:52:00,
2013-11-10 13:57:00,42.9,36.5,29.87,SE,135,0.0,0.0,78,0.00,,,0.00,WUHU216HW,2013-11-10 18:57:00,
2013-11-10 14:02:00,42.9,36.5,29.87,ESE,113,0.0,0.0,78,0.00,,,0.00,WUHU216HW,2013-11-10 19:02:00,
2013-11-10 14:07:00,42.9,36.5,29.87,South,180,0.0,3.0,78,0.00,,,0.00,WUHU216HW,2013-11-10 19:07:00,
2013-11-10 14:12:00,42.9,36.2,29.87,South,180,0.0,3.0,77,0.00,,,0.00,WUHU216HW,2013-11-10 19:12:00,
2013-11-10 14:17:00,42.9,36.2,29.87,SSW,203,0.0,0.0,77,0.00,,,0.00,WUHU216HW,2013-11-10 19:17:00,
2013-11-10 14:22:00,42.9,36.2,29.87,NNE,23,7.0,7.0,77,0.00,,,0.00,WUHU216HW,2013-11-10 19:22:00,
2013-11-10 14:27:00,42.9,35.9,29.87,NE,45,0.0,7.0,76,0.00,,,0.00,WUHU216HW,2013-11-10 19:27:00,
2013-11-10 14:32:00,42.9,35.9,29.87,SE,135,0.0,0.0,76,0.00,,,0.00,WUHU216HW,2013-11-10 19:32:00,
2013-11-10 14:38:00,42.9,35.9,29.87,SE,135,0.0,0.0,76,0.00,,,0.00,WUHU216HW,2013-11-10 19:38:00,
2013-11-10 14:43:00,42.9,35.9,29.87,ESE,113,0.0,0.0,76,0.00,,,0.00,WUHU216HW,2013-11-10 19:43:00,
2013-11-10 14:48:00,42.9,35.5,29.87,SE,125,6.0,6.0,75,0.00,,,0.00,WUHU216HW,2013-11-10 19:48:00,
2013-11-10 14:53:00,42.6,35.2,29.87,SSE,161,7.0,8.0,75,0.00,,,0.00,WUHU216HW,2013-11-10 19:53:00,
2013-11-10 14:58:00,42.6,35.2,29.87,NNE,23,0.0,8.0,75,0.00,,,0.00,WUHU216HW,2013-11-10 19:58:00,
2013-11-10 15:03:00,42.6,34.9,29.87,South,180,0.0,7.0,74,0.00,,,0.00,WUHU216HW,2013-11-10 20:03:00,
2013-11-10 15:08:00,42.6,34.9,29.87,SE,135,3.0,7.0,74,0.00,,,0.00,WUHU216HW,2013-11-10 20:08:00,
2013-11-10 15:13:00,42.6,34.9,29.87,ESE,113,2.0,5.0,74,0.00,,,0.00,WUHU216HW,2013-11-10 20:13:00,
2013-11-10 15:18:00,42.4,34.7,29.87,West,270,1.0,4.0,74,0.00,,,0.00,WUHU216HW,2013-11-10 20:18:00,
2013-11-10 15:23:00,42.4,34.7,29.88,WNW,293,7.0,7.0,74,0.00,,,0.00,WUHU216HW,2013-11-10 20:23:00,
2013-11-10 15:29:00,42.4,34.4,29.88,NE,45,4.0,7.0,73,0.00,,,0.00,WUHU216HW,2013-11-10 20:29:00,
2013-11-10 15:34:00,42.0,34.0,29.88,West,270,0.0,4.0,73,0.00,,,0.00,WUHU216HW,2013-11-10 20:34:00,
2013-11-10 15:39:00,42.0,34.0,29.88,NNE,23,3.0,3.0,73,0.00,,,0.00,WUHU216HW,2013-11-10 20:39:00,
2013-11-10 15:44:00,42.0,34.0,29.88,SSW,203,4.0,4.0,73,0.00,,,0.00,WUHU216HW,2013-11-10 20:44:00,
2013-11-10 15:49:00,42.0,34.0,29.88,ESE,113,3.0,4.0,73,0.00,,,0.00,WUHU216HW,2013-11-10 20:49:00,
2013-11-10 15:54:00,42.0,34.0,29.89,SSW,203,5.0,5.0,73,0.00,,,0.00,WUHU216HW,2013-11-10 20:54:00,
2013-11-10 15:59:00,42.0,34.0,29.89,SE,135,2.0,5.0,73,0.00,,,0.00,WUHU216HW,2013-11-10 20:59:00,
2013-11-10 16:04:00,42.0,34.0,29.89,South,180,0.0,4.0,73,0.00,,,0.00,WUHU216HW,2013-11-10 21:04:00,
2013-11-10 16:09:00,41.9,33.8,29.90,SE,135,0.0,4.0,73,0.00,,,0.00,WUHU216HW,2013-11-10 21:09:00,
2013-11-10 16:14:00,41.9,33.8,29.91,North,0,2.0,6.0,73,0.00,,,0.00,WUHU216HW,2013-11-10 21:14:00,
2013-11-10 16:19:00,41.9,33.8,29.91,SE,135,5.0,6.0,73,0.00,,,0.00,WUHU216HW,2013-11-10 21:19:00,
2013-11-10 16:24:00,41.7,33.6,29.91,ENE,68,0.0,5.0,73,0.00,,,0.00,WUHU216HW,2013-11-10 21:24:00,
2013-11-10 16:30:00,41.5,33.8,29.92,SE,135,3.0,3.0,74,0.00,,,0.00,WUHU216HW,2013-11-10 21:30:00,
2013-11-10 16:35:00,41.3,33.8,29.92,WSW,248,0.0,6.0,75,0.00,,,0.00,WUHU216HW,2013-11-10 21:35:00,
2013-11-10 16:40:00,41.1,33.8,29.92,NW,315,0.0,6.0,75,0.00,,,0.00,WUHU216HW,2013-11-10 21:40:00,
2013-11-10 16:45:00,40.8,33.4,29.92,ENE,68,0.0,3.0,75,0.00,,,0.00,WUHU216HW,2013-11-10 21:45:00,
2013-11-10 16:50:00,40.8,33.7,29.93,NNW,330,4.0,6.0,76,0.00,,,0.00,WUHU216HW,2013-11-10 21:50:00,
2013-11-10 16:55:00,40.6,33.6,29.93,NNE,23,0.0,6.0,76,0.00,,,0.00,WUHU216HW,2013-11-10 21:55:00,
2013-11-10 17:00:00,40.2,33.2,29.93,ESE,113,3.0,4.0,76,0.00,,,0.00,WUHU216HW,2013-11-10 22:00:00,
2013-11-10 17:05:00,40.1,33.0,29.93,SSW,203,2.0,4.0,76,0.00,,,0.00,WUHU216HW,2013-11-10 22:05:00,
2013-11-10 17:10:00,39.9,33.2,29.94,South,180,4.0,4.0,77,0.00,,,0.00,WUHU216HW,2013-11-10 22:10:00,
2013-11-10 17:15:00,39.9,33.2,29.94,ENE,68,0.0,4.0,77,0.00,,,0.00,WUHU216HW,2013-11-10 22:15:00,
2013-11-10 17:20:00,39.7,33.0,29.94,ESE,113,0.0,7.0,77,0.00,,,0.00,WUHU216HW,2013-11-10 22:20:00,
2013-11-10 17:25:00,39.7,33.4,29.94,ESE,123,4.0,7.0,78,0.00,,,0.00,WUHU216HW,2013-11-10 22:25:00,
2013-11-10 17:31:00,39.5,33.4,29.94,SE,135,2.0,6.0,78,0.00,,,0.00,WUHU216HW,2013-11-10 22:31:00,
2013-11-10 17:36:00,39.3,33.0,29.94,East,90,4.0,4.0,78,0.00,,,0.00,WUHU216HW,2013-11-10 22:36:00,
2013-11-10 17:41:00,39.3,33.4,29.94,South,173,6.0,7.0,79,0.00,,,0.00,WUHU216HW,2013-11-10 22:41:00,
2013-11-10 17:46:00,39.0,33.0,29.94,SE,135,0.0,7.0,79,0.00,,,0.00,WUHU216HW,2013-11-10 22:46:00,
2013-11-10 17:51:00,39.0,33.0,29.94,SSE,158,0.0,0.0,79,0.00,,,0.00,WUHU216HW,2013-11-10 22:51:00,
2013-11-10 17:56:00,38.8,32.9,29.94,ESE,113,0.0,0.0,79,0.00,,,0.00,WUHU216HW,2013-11-10 22:56:00,
2013-11-10 18:01:00,38.8,33.2,29.94,SSE,158,0.0,0.0,80,0.00,,,0.00,WUHU216HW,2013-11-10 23:01:00,
2013-11-10 18:06:00,38.8,33.2,29.94,SSE,158,0.0,0.0,80,0.00,,,0.00,WUHU216HW,2013-11-10 23:06:00,
2013-11-10 18:12:00,38.6,33.0,29.94,SE,135,0.0,2.0,80,0.00,,,0.00,WUHU216HW,2013-11-10 23:12:00,
2013-11-10 18:17:00,38.4,32.9,29.94,South,169,4.0,4.0,80,0.00,,,0.00,WUHU216HW,2013-11-10 23:17:00,
2013-11-10 18:22:00,38.4,32.9,29.94,SE,135,2.0,4.0,80,0.00,,,0.00,WUHU216HW,2013-11-10 23:22:00,
2013-11-10 18:27:00,38.4,32.9,29.94,SSE,158,3.0,4.0,80,0.00,,,0.00,WUHU216HW,2013-11-10 23:27:00,
2013-11-10 18:32:00,38.4,32.9,29.94,SE,135,0.0,3.0,80,0.00,,,0.00,WUHU216HW,2013-11-10 23:32:00,
2013-11-10 18:37:00,38.4,32.9,29.93,ESE,113,0.0,0.0,80,0.00,,,0.00,WUHU216HW,2013-11-10 23:37:00,
2013-11-10 18:42:00,38.3,33.0,29.94,ESE,113,0.0,0.0,81,0.00,,,0.00,WUHU216HW,2013-11-10 23:42:00,
2013-11-10 18:47:00,38.1,32.8,29.94,SSE,158,0.0,0.0,81,0.00,,,0.00,WUHU216HW,2013-11-10 23:47:00,
2013-11-10 18:52:00,38.1,32.8,29.94,SE,135,2.0,2.0,81,0.00,,,0.00,WUHU216HW,2013-11-10 23:52:00,